Preview of NWS' New Version of Forecast
This preview is not operational and should not be used for support decisions.
Latest weather observations around

EW3298 Indio (E3298)

Using English Units (Switch to International System of Units)
Date/ Time (PDT) Wind (mph) Vis. (mi) Weather Sky Cond. Temp (°F) Rel. Humidity Wind Chill (°F) Heat Index (°F) Pressure Precip. (in)
Air Dwpt 6 hour Altimeter (inHg) Sea level (inHg) 1 hr 3 hr 6 hr
Max Min
Jun 18 06:01 WNW 11   Clear   67 48     50%     29.83        
Jun 18 05:46 WNW 10   Clear   67 48     51%     29.82        
Jun 18 05:31 WNW 9   Clear   67 47     49%     29.81        
Jun 18 05:16 NW 10   Clear   67 47     49%     29.81        
Jun 18 05:01 W 9   Clear   67 47     49%     29.8        
Jun 18 04:46 NW 10   Clear   67 47     49%     29.8        
Jun 18 04:31 WNW 9   Clear   67 47     48%     29.79        
Jun 18 04:16 WNW 7   Clear   67 47     48%     29.79        
Jun 18 04:01 WNW 10   Clear   68 48     48%     29.78        
Jun 18 03:46 WNW 12   Clear   68 47     47%     29.78        
Jun 18 03:31 WNW 10   Clear   68 47     47%     29.78        
Jun 18 03:18 WNW 9   Clear   68 47     47%     29.78        
Jun 18 03:01 NW 8   Clear   68 47     47%     29.78        
Jun 18 02:46 WNW 9   Clear   69 48     47%     29.78        
Jun 18 02:31 W 12   Clear   68 47     47%     29.78        
Jun 18 02:16 NW 8   Clear   69 48     47%     29.78        
Jun 18 02:01 WNW 9   Clear   69 47     46%     29.78        
Jun 18 01:46 WNW 9   Clear   69 48     47%     29.77        
Jun 18 01:31 W 12   Clear   69 48     47%     29.77        
Jun 18 01:16 WNW 10   Clear   69 48     47%     29.78        
Jun 18 01:01 WNW 10   Clear   69 47     46%     29.78        
Jun 18 00:46 WNW 11   Clear   69 48     47%     29.78        
Jun 18 00:31 NW 9   Clear   69 48     48%     29.78        
Jun 18 00:16 NW 10   Clear   69 48     48%     29.77        
Jun 18 00:01 NW 11   Clear   70 49     47%     29.77        
Jun 17 23:45 NW 13   Clear   70 49     47%     29.77        
Jun 17 23:30 NW 15   Clear   70 49     47%     29.77        
Jun 17 23:15 NW 12   Clear   70 49     47%     29.76        
Jun 17 23:00 NW 13   Clear   70 48     46%     29.77        
Jun 17 22:45 NW 13   Clear   71 49     45%   70 29.76        
Jun 17 22:30 NW 13   Clear   72 49     44%   71 29.76        
Jun 17 22:15 NW 11   Clear   72 49     44%   71 29.76        
Jun 17 22:00 NW 11   Clear   73 49     43%   72 29.75        
Jun 17 21:45 NW 12   Clear   74 49     42%   73 29.75        
Jun 17 21:30 NW 12   Clear   74 48     40%   73 29.75        
Jun 17 21:15 WNW 11   Clear   75 49     40%   74 29.74        
Jun 17 21:00 NW 14   Clear   76 49     38%   75 29.73        
Jun 17 20:45 NW 11   Clear   77 49     37%   76 29.72        
Jun 17 20:30 WNW 10   Clear   78 49     36%   77 29.72        
Jun 17 20:15 NW 10   Clear   79 49     35%   78 29.72        
Jun 17 20:02 NNW 12   Clear   79 48     34%   78 29.71        
Jun 17 19:45 NNW 13   Clear   81 48     32%   80 29.71        
Jun 17 19:30 NW 14   Clear   82 48     31%   81 29.71        
Jun 17 19:15 NW 14   Clear   83 47     29%   81 29.7        
Jun 17 19:00 N 14   Clear   84 48     29%   82 29.7        
Jun 17 18:45 NW 17   Clear   85 47     27%   83 29.7        
Jun 17 18:30 NNW 13   Clear   87 47     25%   84 29.7        
Jun 17 18:15 NNW 11   Clear   88 46     23%   85 29.69        
Jun 17 18:00 NW 11   Clear   89 46     23%   86 29.69        
Jun 17 17:45 NNW 11   Clear   89 45     22%   86 29.69        
Jun 17 17:30 NNW 12   Clear   89 45     22%   86 29.69        
Jun 17 17:15 NW 11   Clear   89 45     22%   86 29.69        
Jun 17 17:00 NW 9   Clear   90 45     21%   86 29.7        
Jun 17 16:45 Calm   Clear   91 44     20%   87 29.7        
Jun 17 16:30 Calm   Clear   90 45     21%   86 29.69        
Jun 17 16:15 NE 2   Clear   90 45     21%   86 29.7        
Jun 17 16:00 NNW 1   Clear   90 43     20%   86 29.7        
Jun 17 15:45 NNW 1   Clear   89 44     21%   85 29.71        
Jun 17 15:30 W 8   Clear   89 44     21%   85 29.71        
Jun 17 15:15 NW 8   Clear   88 43     21%   85 29.72        
Jun 17 15:00 NNW 1   Clear   88 44     22%   85 29.72        
Jun 17 14:45 NNW 6   Clear   88 44     22%   85 29.72        
Jun 17 14:30 Calm   Clear   88 44     22%   85 29.72        
Jun 17 14:15 Calm   Clear   87 44     22%   84 29.73        
Jun 17 14:00 Calm   Clear   87 44     22%   84 29.73        
Jun 17 13:45 Calm   Clear   86 44     23%   83 29.73        
Jun 17 13:30 W 1   Clear   85 44     24%   82 29.73        
Jun 17 13:15 W 1   Clear   85 43     23%   82 29.74        
Jun 17 13:00 W 4   Clear   84 43     24%   82 29.75        
Jun 17 12:46 NNW 3   Clear   83 42     24%   81 29.75        
Jun 17 12:30 WNW 4   Clear   83 44     25%   81 29.75        
Jun 17 12:15 WNW 4   Clear   82 43     25%   80 29.75        
Jun 17 12:00 WNW 8   Clear   82 44     26%   80 29.76        
Jun 17 11:45 W 10   Clear   81 45     28%   80 29.76        
Jun 17 11:30 WNW 7   Clear   81 45     28%   80 29.76        
Jun 17 11:15 NW 9   Clear   80 45     29%   79 29.76        
Jun 17 11:00 WNW 10   Clear   79 45     30%   78 29.76        
Jun 17 10:45 NW 7   Clear   79 46     31%   78 29.76        
Jun 17 10:29 NW 7   Clear   78 46     32%   77 29.76        
Jun 17 10:15 NW 10   Clear   78 46     32%   77 29.76        
Jun 17 09:59 W 6   Clear   77 46     33%   76 29.76        
Jun 17 09:44 W 9   Clear   76 46     35%   75 29.77        
Jun 17 09:29 NW 11   Clear   75 46     36%   74 29.77        
Jun 17 09:14 WNW 7   Clear   75 48     38%   74 29.77        
Jun 17 08:59 WNW 11   Clear   73 47     39%   72 29.77        
Jun 17 08:44 NW 10   Clear   73 47     40%   72 29.77        
Jun 17 08:29 NNW 9   Clear   72 48     42%   71 29.76        
Jun 17 08:14 NW 9   Clear   71 48     44%   70 29.76        
Jun 17 07:59 WNW 11   Clear   70 48     45%     29.76        
Jun 17 07:44 NNW 11   Clear   70 48     46%     29.76        
Jun 17 07:29 NNW 8   Clear   69 48     47%     29.75        
Jun 17 07:14 NW 10   Clear   69 48     48%     29.75        
Jun 17 06:59 NW 9   Clear   68 48     48%     29.74        
Jun 17 06:44 NNW 9   Clear   68 48     49%     29.74        
Jun 17 06:29 WNW 10   Clear   68 48     49%     29.73        
Jun 17 06:14 WNW 9   Clear   68 48     49%     29.72        
Jun 17 05:59 WNW 7   Clear   67 48     50%     29.72        
Jun 17 05:44 NW 6   Clear   68 48     49%     29.72        
Jun 17 05:30 WNW 7   Clear   68 48     49%     29.71        
Jun 17 05:14 WNW 7   Clear   68 48     49%     29.7        
Jun 17 04:59 NW 6   Clear   68 48     49%     29.7        
Jun 17 04:44 W 7   Clear   68 48     49%     29.7        
Jun 17 04:29 WNW 7   Clear   68 48     49%     29.7        
Jun 17 04:14 WNW 5   Clear   68 48     49%     29.7        
Jun 17 03:59 WNW 8   Clear   68 48     49%     29.69        
Jun 17 03:44 NW 8   Clear   68 48     49%     29.68        
Jun 17 03:29 WNW 11   Clear   68 48     49%     29.67        
Jun 17 03:14 NW 12   Clear   68 48     49%     29.67        
Jun 17 02:59 NW 11   Clear   68 48     49%     29.67        
Jun 17 02:43 NW 8   Clear   69 48     48%     29.67        
Jun 17 02:28 W 9   Clear   69 48     48%     29.67        
Jun 17 02:13 NW 9   Clear   69 48     47%     29.66        
Jun 17 01:58 WNW 7   Clear   70 49     47%     29.66        
Jun 17 01:43 WNW 8   Clear   70 48     46%     29.66        
Jun 17 01:28 WNW 8   Clear   70 49     47%     29.66        
Jun 17 01:13 WNW 8   Clear   69 48     47%     29.66        
Jun 17 00:58 NW 10   Clear   70 49     47%     29.65        
Jun 17 00:43 WNW 10   Clear   70 48     46%     29.65        
Jun 17 00:28 NW 10   Clear   70 48     45%     29.65        
Jun 17 00:13 NW 13   Clear   70 48     46%     29.64        
Jun 16 23:58 WNW 14   Clear   70 48     46%     29.64        
Jun 16 23:43 NW 11   Clear   71 49     46%   70 29.65        
Jun 16 23:28 WNW 11   Clear   71 49     45%   70 29.64        
Jun 16 23:16 NNW 15   Clear   71 49     46%   70 29.64        
Jun 16 22:58 NW 11   Clear   72 49     44%   71 29.64        
Jun 16 22:43 WNW 8   Clear   73 49     43%   72 29.64        
Jun 16 22:28 W 11   Clear   73 49     43%   72 29.64        
Jun 16 22:13 WNW 11   Clear   73 49     43%   72 29.65        
Jun 16 21:58 WNW 11   Clear   74 50     43%   73 29.65        
Jun 16 21:43 W 11   Clear   74 50     43%   73 29.64        
Jun 16 21:28 WNW 10   Clear   75 50     41%   74 29.63        
Jun 16 21:13 NW 12   Clear   76 50     40%   75 29.62        
Jun 16 20:58 WNW 11   Clear   77 50     39%   76 29.61        
Jun 16 20:43 WNW 8   Clear   77 50     39%   76 29.61        
Jun 16 20:28 NW 12   Clear   78 50     37%   77 29.61        
Jun 16 20:13 NW 9   Clear   80 50     35%   79 29.61        
Jun 16 19:58 W 10   Clear   80 50     35%   79 29.61        
Jun 16 19:43 WNW 11   Clear   82 50     33%   81 29.59        
Jun 16 19:28 NW 15   Clear   83 50     32%   81 29.59        
Jun 16 19:13 WNW 11   Clear   85 50     30%   83 29.58        
Jun 16 18:58 WNW 14   Clear   86 49     28%   84 29.57        
Jun 16 18:43 NW 13   Clear   88 50     27%   85 29.57        
Jun 16 18:27 NW 14   Clear   89 47     24%   86 29.57        
Jun 16 18:12 NW 8   Clear   91 47     22%   88 29.57        
Jun 16 17:57 NW 11   Clear   92 46     21%   88 29.57        
Jun 16 17:42 NNW 10   Clear   93 45     19%   89 29.56        
Jun 16 17:27 WNW 8   Clear   94 47     20%   90 29.56        
Jun 16 17:12 NW 10   Clear   94 47     20%   90 29.56        
Jun 16 16:57 NNW 8   Clear   95 49     21%   92 29.56        
Jun 16 16:42 NW 3   Clear   95 51     23%   92 29.56        
Jun 16 16:27 WNW 4   Clear   95 51     23%   92 29.57        
Jun 16 16:12 Calm   Clear   95 54     25%   93 29.57        
Jun 16 15:59 Calm   Clear   94 57     29%   93 29.57        
Jun 16 15:42 SE 1   Clear   94 57     29%   93 29.58        
Jun 16 15:27 Calm   Clear   93 56     29%   91 29.59        
Jun 16 15:12 SE 4   Clear   94 58     30%   93 29.59        
Jun 16 14:57 SE 2   Clear   93 57     30%   92 29.59        
Jun 16 14:42 ESE 5   Clear   92 60     34%   92 29.6        
Jun 16 14:27 SE 7   Clear   92 63     38%   93 29.6        
Jun 16 14:12 Calm   Clear   91 63     39%   92 29.6        
Jun 16 13:57 ESE 4   Clear   91 62     38%   91 29.6        
Jun 16 13:42 SE 3   Clear   92 63     38%   93 29.61        
Jun 16 13:27 Calm   Clear   91 63     40%   92 29.61        
Jun 16 13:12 Calm   Clear   91 65     43%   93 29.62        
Jun 16 12:57 Calm   Clear   90 65     44%   92 29.62        
Jun 16 12:42 Calm   Clear   89 64     44%   91 29.62        
Jun 16 12:27 Calm   Clear   89 64     43%   90 29.63        
Jun 16 12:12 NNE 2   Clear   89 63     42%   90 29.63        
Jun 16 11:57 Calm   Clear   88 62     42%   88 29.64        
Jun 16 11:42 Calm   Clear   88 63     43%   89 29.64        
Jun 16 11:27 Calm   Clear   86 62     45%   87 29.65        
Jun 16 11:12 ENE 1   Clear   86 63     46%   87 29.65        
Jun 16 10:57 Calm   Clear   85 62     47%   86 29.65        
Jun 16 10:42 Calm   Clear   84 63     49%   85 29.66        
Jun 16 10:27 Calm   Clear   85 64     50%   86 29.66        
Jun 16 10:12 Calm   Clear   84 64     51%   85 29.66        
Jun 16 09:57 Calm   Clear   82 63     53%   83 29.66        
Jun 16 09:42 Calm   Clear   82 64     54%   83 29.66        
Jun 16 09:27 Calm   Clear   82 62     51%   83 29.67        
Jun 16 09:12 Calm   Clear   81 58     45%   81 29.67        
Jun 16 08:57 WNW 1   Clear   81 57     44%   81 29.67        
Jun 16 08:44 W 5   Clear   80 55     43%   80 29.67        
Jun 16 08:27 WNW 3   Clear   79 56     45%   79 29.67        
Jun 16 08:12 WNW 6   Clear   78 55     45%   78 29.67        
Jun 16 07:56 WNW 7   Clear   77 55     47%   77 29.67        
Jun 16 07:41 W 2   Clear   77 55     47%   77 29.66        
Jun 16 07:26 W 3   Clear   77 55     47%   77 29.66        
Jun 16 07:11 WNW 6   Clear   77 55     46%   77 29.65        
Jun 16 06:56 Calm   Clear   77 54     45%   77 29.65        
Jun 16 06:41 WNW 4   Clear   77 54     45%   77 29.64        
Jun 16 06:26 WNW 5   Clear   77 53     44%   76 29.64        
Jun 16 06:11 WNW 3   Clear   77 53     44%   76 29.63        
Jun 16 05:56 W 3   Clear   77 52     42%   76 29.62        
Jun 16 05:41 W 3   Clear   77 51     41%   76 29.62        
Jun 16 05:26 Calm   Clear   78 52     40%   77 29.62        
Jun 16 05:11 Calm   Clear   78 51     39%   77 29.62        
Jun 16 04:56 Calm   Clear   78 51     39%   77 29.62        
Jun 16 04:41 Calm   Clear   78 50     38%   77 29.62        
Jun 16 04:26 Calm   Clear   78 49     36%   77 29.62        
Jun 16 04:11 Calm   Clear   79 50     36%   78 29.62        
Jun 16 03:56 Calm   Clear   79 50     36%   78 29.62        
Jun 16 03:41 Calm   Clear   79 50     36%   78 29.62        
Jun 16 03:26 Calm   Clear   79 50     37%   78 29.62        
Jun 16 03:11 Calm   Clear   80 53     39%   80 29.62        
Jun 16 02:56 Calm   Clear   80 53     39%   80 29.62        
Jun 16 02:41 Calm   Clear   80 55     43%   80 29.62        
Jun 16 02:26 Calm   Clear   80 68     66%   82 29.62        
Jun 16 02:11 Calm   Clear   80 67     65%   82 29.63        
Jun 16 01:56 Calm   Clear   80 67     65%   82 29.63        
Jun 16 01:41 Calm   Clear   81 68     64%   84 29.63        
Jun 16 01:27 Calm   Clear   81 68     64%   84 29.63        
Jun 16 01:11 Calm   Clear   81 67     63%   83 29.63        
Jun 16 00:56 Calm   Clear   81 67     63%   83 29.63        
Jun 16 00:41 Calm   Clear   81 67     63%   83 29.63        
Jun 16 00:26 Calm   Clear   82 68     62%   85 29.63        
Jun 16 00:11 Calm   Clear   82 67     61%   85 29.63        
Jun 15 23:56 Calm   Clear   82 67     60%   84 29.63        
Jun 15 23:41 Calm   Clear   82 66     59%   84 29.64        
Jun 15 23:26 Calm   Clear   83 67     58%   85 29.64        
Jun 15 23:11 Calm   Clear   83 66     57%   85 29.63        
Jun 15 22:56 Calm   Clear   83 65     55%   85 29.63        
Jun 15 22:41 Calm   Clear   84 66     54%   86 29.64        
Jun 15 22:26 Calm   Clear   84 64     52%   86 29.64        
Jun 15 22:11 S 3   Clear   84 64     51%   85 29.64        
Jun 15 21:56 S 1   Clear   85 63     48%   86 29.64        
Jun 15 21:41 SSE 3   Clear   86 63     46%   87 29.63        
Jun 15 21:26 Calm   Clear   86 63     46%   87 29.63        
Jun 15 21:11 Calm   Clear   86 63     46%   87 29.62        
Jun 15 20:56 ESE 3   Clear   87 63     45%   88 29.62        
Jun 15 20:41 ESE 5   Clear   87 64     47%   88 29.61        
Jun 15 20:26 ESE 8   Clear   87 65     49%   89 29.61        
Jun 15 20:11 ESE 5   Clear   88 66     48%   90 29.61        
Jun 15 19:56 ESE 4   Clear   89 66     47%   92 29.61        
Jun 15 19:41 ESE 8   Clear   89 67     48%   92 29.61        
Jun 15 19:26 SE 4   Clear   90 69     50%   95 29.61        
Jun 15 19:11 SSE 2   Clear   91 69     48%   96 29.6        
Jun 15 19:10 SSE 2   Clear   91 69     48%   96 29.6        
Jun 15 18:55 E 5   Clear   90 68     49%   94 29.6        
Jun 15 18:40 SE 7   Clear   90 68     49%   94 29.6        
Jun 15 18:25 SE 6   Clear   90 69     50%   95 29.6        
Jun 15 18:12 SE 7   Clear   90 68     49%   94 29.6        
Jun 15 17:55 ESE 7   Clear   90 69     51%   95 29.6        
Jun 15 17:40 ESE 6   Clear   91 69     48%   96 29.6        
Jun 15 17:25 Calm   Clear   92 67     44%   95 29.61        
Jun 15 17:10 E 4   Clear   92 66     43%   95 29.6        
Jun 15 16:55 SE 7   Clear   92 68     45%   96 29.61        
Jun 15 16:40 ESE 8   Clear   92 68     45%   96 29.62        
Jun 15 16:25 SE 6   Clear   92 67     44%   95 29.62        
Jun 15 16:10 ESE 6   Clear   92 69     47%   97 29.62        
Jun 15 15:55 E 3   Clear   91 68     47%   95 29.62        
Jun 15 15:40 SE 7   Clear   91 69     49%   96 29.63        
Jun 15 15:25 ESE 7   Clear   91 70     50%   96 29.63        
Jun 15 15:10 E 8   Clear   91 69     48%   96 29.64        
Jun 15 14:55 SSE 9   Clear   92 69     47%   97 29.65        
Jun 15 14:40 ESE 9   Clear   92 67     44%   95 29.65        
Jun 15 14:25 ESE 6   Clear   92 63     39%   93 29.65        
Jun 15 14:10 SE 6   Clear   93 60     34%   93 29.66        
Jun 15 13:55 SSE 8   Clear   93 57     30%   92 29.67        
Jun 15 13:40 ESE 7   Clear   94 63     36%   95 29.67        
Jun 15 13:25 SE 8   Clear   94 57     29%   93 29.67        
Jun 15 13:10 ESE 6   Clear   93 58     31%   92 29.67        
Jun 15 12:55 SE 3   Clear   93 58     31%   92 29.68        
Jun 15 12:40 Calm   Clear   94 60     32%   94 29.68        
Jun 15 12:25 SE 6   Clear   93 60     34%   93 29.68        
Jun 15 12:10 ESE 6   Clear   93 60     34%   93 29.68        
Jun 15 11:55 ESE 7   Clear   92 61     36%   92 29.69        
Jun 15 11:40 Calm   Clear   91 63     40%   92 29.69        
Jun 15 11:25 ESE 2   Clear   90 65     44%   92 29.7        
Jun 15 11:10 SE 6   Clear   90 64     43%   92 29.7        
Jun 15 10:56 SE 3   Clear   91 62     38%   91 29.71        
Jun 15 10:40 Calm   Clear   90 65     44%   92 29.71        
Jun 15 10:25 Calm   Clear   90 64     43%   92 29.7        
Jun 15 10:10 Calm   Clear   89 63     42%   90 29.7        
Jun 15 09:55 Calm   Clear   88 63     44%   89 29.7        
Jun 15 09:40 Calm   Clear   87 64     46%   88 29.71        
Jun 15 09:25 Calm   Clear   86 62     45%   87 29.71        
Jun 15 09:10 Calm   Clear   86 65     49%   88 29.72        
Jun 15 08:55 SE 4   Clear   86 65     49%   88 29.72        
Jun 15 08:40 E 6   Clear   86 64     48%   87 29.72        
Jun 15 08:25 SE 2   Clear   85 63     48%   86 29.72        
Jun 15 08:10 Calm   Clear   83 62     49%   84 29.72        
Jun 15 07:55 SE 2   Clear   83        %     29.71        
Jun 15 07:40 Calm   Clear   83 55     39%   82 29.7        
Jun 15 07:25 Calm   Clear   83 52     35%   82 29.7        
Jun 15 07:10 Calm   Clear   83 51     33%   81 29.69        
Jun 15 06:55 Calm   Clear   83 49     31%   81 29.69        
Jun 15 06:40 Calm   Clear   83 47     29%   81 29.68        
Jun 15 06:25 Calm   Clear   82 47     29%   80 29.67        
Jun 15 06:10 Calm   Clear   82 47     29%   80 29.67        
Jun 15 05:55 Calm   Clear   82 47     30%   80 29.67        
Jun 15 05:40 Calm   Clear   82 45     27%   80 29.67        
Jun 15 05:25 Calm   Clear   83 46     27%   81 29.66        
May 15 01:10 WNW 8   Clear   72 50     46%   71 29.82        
Notice The following observation data may not be complete
May 14 23:55     Clear            %              
Notice The following observation data may not be complete
May 14 18:56     Clear            %              
May 14 18:10 W 4   Clear   89        %     29.73        
May 14 15:55 Calm   Clear   88 27     11%   84 29.76        
Notice The following observation data may not be complete
May 14 10:39     Clear            %              
May 14 09:56 Calm   Clear   77 47     35%   76 29.86        
May 14 09:24 W 1   Clear   75 46     36%   74 29.86        
Notice The following observation data may not be complete
May 14 07:38     Clear            %              
May 14 00:07 NW 7   Clear   69 48     48%     29.83        
May 13 23:52 NW 4   Clear   69 48     47%     29.83        
Notice The following observation data may not be complete
May 13 21:52     Clear            %              
May 13 19:07 NW 8   Clear   80 44     28%   79 29.78        
Notice The following observation data may not be complete
May 13 15:52     Clear            %              
Notice The following observation data may not be complete
May 13 14:37     Clear            %              
May 13 14:22 W 2   Clear   82 45     27%   80 29.83        
May 13 12:22 Calm   Clear   78 44     30%   77 29.89        
May 13 12:07 NW 3   Clear   78 44     30%   77 29.89        
May 13 09:06 NW 7   Clear   71 47     42%   70 29.9        
May 13 07:06 NW 6   Clear   66 48     52%     29.87        
May 13 05:06 WNW 9   Clear   64 46     51%     29.83        
May 13 02:21 NNW 10   Clear   66 46     49%     29.8        
May 13 01:20 WNW 12   Clear   67 47     48%     29.82        
May 12 20:35 NW 11   Clear   71 45     40%   70 29.78        
May 12 19:05 NW 9   Clear   75 45     34%   74 29.75        
Notice The following observation data may not be complete
May 12 18:20 NNW 10   Clear     45      %     29.75        
May 12 16:35 WNW 7   Clear   82 44     26%   80 29.74        
May 12 14:35 WNW 1   Clear   82 44     26%   80 29.77        
May 12 13:35 W 6   Clear   80 45     29%   79 29.79        
Notice The following observation data may not be complete
May 12 12:50     Clear            %              
May 12 09:49 NW 10   Clear   72 45     38%   71 29.83        
May 12 07:34 NW 6   Clear   66 46     48%     29.81        
May 12 07:04 WNW 10   Clear   64 45     50%     29.8        
May 12 06:49 WNW 7   Clear   64 45     50%     29.79        
May 12 01:18 NW 14   Clear   65 46     50%     29.68        
May 12 00:33 NW 11   Clear   66 47     50%     29.67        
May 12 00:03 NW 11   Clear   66 46     49%     29.68        
May 11 18:02 NW 9   Clear   77 48     36%   76 29.57        
May 11 16:47 WNW 10   Clear   84 46     27%   82 29.57        
May 11 15:47 NNW 9   Clear   85 48     28%   83 29.57        
May 11 10:47 Calm   Clear   81 48     32%   80 29.67        
Jun 12 04:49 WNW 5   Clear   66 46     48%     29.83        
Jun 11 22:31 NNW 12   Clear   69 47     45%     29.79        
Jun 11 21:16 NW 10   Clear   72 47     41%   71 29.75        
Jun 11 19:01 NW 9   Clear   81 47     30%   80 29.69        
Jun 11 17:00 NW 9   Clear   86 43     22%   83 29.66        
Jun 11 16:30 NW 9   Clear   87 45     23%   84 29.67        
Jun 11 16:16 NNW 8   Clear   87 46     24%   84 29.67        
Jun 11 15:16 NW 11   Clear   86 44     23%   83 29.68        
Jun 11 12:45 NW 11   Clear   83 47     28%   81 29.72        
Jun 11 11:30 NW 7   Clear   81 47     31%   80 29.72        
Jun 11 10:30 WNW 9   Clear   79 47     33%   78 29.72        
Jun 11 05:14 WNW 2   Clear   67 47     48%     29.66        
Jun 11 04:59 NW 6   Clear   68 48     48%     29.65        
Jun 11 03:44 WNW 6   Clear   69 48     48%     29.64        
Jun 11 00:13 NW 9   Clear   73 50     44%   72 29.63        
Jun 10 22:13 NNW 13   Clear   75 50     42%   74 29.63        
Jun 10 21:43 NW 11   Clear   77 51     40%   76 29.62        
Jun 10 21:13 NNW 8   Clear   78 50     38%   77 29.62        
Jun 10 19:13 NW 11   Clear   85 52     32%   83 29.6        
Jun 10 18:28 NW 8   Clear   88 51     28%   85 29.59        
Jun 10 17:43 NW 16   Clear   90 47     23%   87 29.59        
Jun 10 16:43 WNW 5   Clear   94 41     16%   90 29.59        
Jun 10 14:43 WNW 2   Clear   94 41     16%   90 29.63        
Jun 10 10:14 W 4   Clear   85 47     27%   83 29.7        
Jun 10 09:12 WNW 7   Clear   83 47     28%   81 29.7        
Jun 09 21:56 NW 8   Clear   82 52     36%   81 29.67        
Jun 09 17:11 NW 2   Clear   99 51     20%   96 29.62        
Jun 09 14:25 Calm   Clear   99 40     13%   94 29.68        
Jun 09 13:55 WNW 4   Clear   99 40     13%   94 29.68        
Jun 09 07:39 W 2   Clear   79 50     37%   78 29.75        
Jun 09 02:54 WNW 9   Clear   80 42     26%   79 29.73        
Jun 09 00:39 NW 3   Clear   83 32     16%   80 29.73        
Jun 08 15:23 W 5   Clear   101 41     13%   96 29.72        
Jun 08 14:38 Calm   Clear   99 45     16%   95 29.74        
Jun 08 13:23 NW 1   Clear   95 45     18%   91 29.78        
Jun 08 12:07 Calm   Clear   91 51     26%   88 29.83        
Jun 08 08:07 Calm   Clear   77 55     47%   77 29.85        
Jun 08 07:52 Calm   Clear   76 55     48%   76 29.84        
Jun 08 06:52 Calm   Clear   74 56     54%   74 29.81        
Jun 08 05:36 WNW 2   Clear   73 55     53%   72 29.79        
Jun 08 03:51 W 10   Clear   75 55     49%   75 29.77        
Jun 08 02:36 WNW 9   Clear   77 54     45%   77 29.76        
Jun 07 23:51 WNW 7   Clear   82 54     38%   81 29.75        
Jun 07 22:51 WNW 6   Clear   84 56     38%   83 29.75        
Jun 07 20:06 Calm   Clear   95 43     17%   91 29.7        
Jun 07 15:50 SE 3   Clear   97 42     15%   93 29.73        
Jun 07 12:20 Calm   Clear   91 49     24%   88 29.81        
Jun 07 12:05 ESE 1   Clear   91 50     25%   88 29.82        
Jun 07 09:19 Calm   Clear   83 58     42%   83 29.83        
Notice The following observation data may not be complete
Jun 07 09:04 Calm   Clear     58      %     29.83        
Jun 06 07:32 Calm   Clear   81 55     41%   81 29.8        
Jun 06 07:17 Calm   Clear   81 55     41%   81 29.8        
Jun 06 07:02 Calm   Clear   80 55     42%   80 29.79        
Jun 05 23:46 Calm   Clear   87 55     34%   85 29.73        
Jun 05 22:46 Calm   Clear   90 53     29%   88 29.72        
Jun 05 20:46 Calm   Clear   97 54     24%   95 29.67        
Jun 05 20:31 Calm   Clear   98 55     24%   96 29.66        
Jun 05 15:46 S 7   Clear   102 46     15%   98 29.66        
Jun 05 15:01 Calm   Clear   103 46     15%   99 29.67        
Jun 05 14:46 SW 5   Clear   103 46     15%   99 29.67